TimeEDT,TemperatureF,Dew PointF,Humidity,Sea Level PressureIn,VisibilityMPH,Wind Direction,Wind SpeedMPH,Gust SpeedMPH,PrecipitationIn,Events,Conditions,WindDirDegrees,DateUTC
12:53 AM,82.9,72.0,69,29.93,10.0,West,3.5,-,N/A,,Clear,280,2013-06-13 04:53:00
1:53 AM,82.0,72.0,71,29.91,10.0,WNW,6.9,-,N/A,,Clear,290,2013-06-13 05:53:00
2:53 AM,81.0,72.0,74,29.90,10.0,Calm,Calm,-,N/A,,Clear,0,2013-06-13 06:53:00
3:53 AM,79.0,72.0,79,29.91,10.0,Calm,Calm,-,N/A,,Clear,0,2013-06-13 07:53:00
4:53 AM,80.1,72.0,76,29.90,10.0,West,5.8,-,N/A,,Clear,280,2013-06-13 08:53:00
5:53 AM,80.1,71.1,74,29.90,10.0,West,6.9,-,N/A,,Clear,280,2013-06-13 09:53:00
6:53 AM,79.0,71.1,77,29.90,10.0,West,3.5,-,N/A,,Clear,270,2013-06-13 10:53:00
7:53 AM,81.0,71.1,72,29.90,10.0,West,6.9,-,N/A,,Clear,280,2013-06-13 11:53:00
8:53 AM,84.0,71.1,65,29.90,10.0,West,9.2,17.3,N/A,,Clear,280,2013-06-13 12:53:00
9:53 AM,86.0,71.1,61,29.89,10.0,WNW,9.2,18.4,N/A,,Clear,290,2013-06-13 13:53:00
10:53 AM,88.0,69.1,53,29.89,10.0,WSW,10.4,20.7,N/A,,Clear,250,2013-06-13 14:53:00
11:53 AM,90.0,69.1,50,29.87,10.0,SW,10.4,19.6,N/A,,Clear,220,2013-06-13 15:53:00
12:53 PM,91.0,68.0,47,29.85,10.0,WSW,11.5,21.9,N/A,,Clear,240,2013-06-13 16:53:00
1:53 PM,91.9,68.0,45,29.83,10.0,Variable,5.8,-,N/A,,Clear,0,2013-06-13 17:53:00
2:53 PM,93.0,66.9,42,29.81,10.0,Variable,6.9,18.4,N/A,,Clear,0,2013-06-13 18:53:00
3:53 PM,93.0,66.9,42,29.80,10.0,WSW,11.5,19.6,N/A,,Clear,250,2013-06-13 19:53:00
4:53 PM,93.0,66.0,41,29.78,10.0,WSW,9.2,20.7,N/A,,Clear,240,2013-06-13 20:53:00
5:53 PM,91.9,66.0,42,29.76,10.0,WSW,10.4,16.1,N/A,,Partly Cloudy,240,2013-06-13 21:53:00
6:53 PM,91.0,66.9,45,29.76,10.0,Variable,5.8,17.3,N/A,,Clear,0,2013-06-13 22:53:00
7:53 PM,89.1,68.0,50,29.78,10.0,WSW,6.9,-,N/A,,Clear,240,2013-06-13 23:53:00
8:53 PM,87.1,68.0,53,29.77,10.0,SW,5.8,-,N/A,,Clear,220,2013-06-14 00:53:00
9:53 PM,87.1,68.0,53,29.73,10.0,SW,10.4,17.3,N/A,,Clear,220,2013-06-14 01:53:00
10:53 PM,84.9,69.1,59,29.76,10.0,WNW,9.2,-,0.00,,Mostly Cloudy,300,2013-06-14 02:53:00
11:53 PM,80.1,69.1,69,29.77,10.0,NW,9.2,-,N/A,,Clear,320,2013-06-14 03:53:00